Weather History for Corpus Christi NAS, TX

Change the Weather History Date:

Monday, March 25, 2013

  Actual Average Record
Temperature  
Mean Temperature 58 °F -  
Max Temperature 64 °F 72 °F 81 °F (2009)
Min Temperature 52 °F 59 °F 43 °F (2006)
Degree Days  
Heating Degree Days 8    
Growing Degree Days 8 (Base 50)    
Moisture  
Dew Point 30 °F    
Average Humidity 35    
Maximum Humidity 53    
Minimum Humidity 21    
Precipitation  
Precipitation 0.00 in - - ()
Sea Level Pressure  
Sea Level Pressure 30.25 in    
Wind  
Wind Speed 19 mph (ENE)    
Max Wind Speed 24 mph    
Max Gust Speed 33 mph    
Visibility 10 miles    
Events      
Averages and records for this station are not official NWS values.
T = Trace of Precipitation, MM = Missing Value Source: NWS Daily Summary

Daily Weather History Graph

Daily Weather History Graph

Search for Another Location

Airport:

Trip Planner

Search our weather history database for the weather conditions in past years. The results will help you decide how hot, cold, wet, or windy it might be!

Date:

Astronomy

Mar. 25, 2013 Rise Set
Actual Time 7:27 AM CDT 7:43 PM CDT
Civil Twilight 7:03 AM CDT 8:06 PM CDT
Nautical Twilight 6:36 AM CDT 8:34 PM CDT
Astronomical Twilight 6:08 AM CDT 9:01 PM CDT
Moon 6:20 PM CDT 6:04 AM CDT
Length of Visible Light 13h 02m
Length of Day
12h 16m
Waxing Gibbous, 96% of the Moon is Illuminated
Mar 25
Waxing Gibbous
Mar 27
Full
Apr 2
Last Quarter
Apr 10
New
Apr 18
First Quarter

Hourly Weather History & Observations

Time (CDT) Temp. Dew Point Humidity Pressure Visibility Wind Dir Wind Speed Gust Speed Precip Events Conditions
12:56 AM 57.9 °F 30.0 °F 35% 30.13 in 10.0 mi NE 20.7 mph 28.8 mph N/A   Clear
1:56 AM 57.0 °F 32.0 °F 39% 30.14 in 10.0 mi NNE 23.0 mph - N/A   Clear
2:56 AM 55.9 °F 28.9 °F 36% 30.13 in 10.0 mi NNE 24.2 mph 32.2 mph N/A   Clear
3:56 AM 54.0 °F 33.1 °F 45% 30.14 in 10.0 mi NNE 23.0 mph - N/A   Clear
4:56 AM 53.1 °F 33.1 °F 47% 30.17 in 10.0 mi NNE 21.9 mph - N/A   Clear
5:56 AM 53.1 °F 33.1 °F 47% 30.19 in 10.0 mi NE 18.4 mph - N/A   Clear
6:56 AM 52.0 °F 35.1 °F 53% 30.21 in 10.0 mi NNE 19.6 mph - N/A   Partly Cloudy
7:56 AM 53.1 °F 36.0 °F 52% 30.23 in 10.0 mi NE 23.0 mph - N/A   Scattered Clouds
8:56 AM 55.9 °F 33.1 °F 42% 30.28 in 10.0 mi ENE 16.1 mph 26.5 mph N/A   Scattered Clouds
9:56 AM 57.0 °F 33.1 °F 40% 30.32 in 10.0 mi NNE 23.0 mph 33.4 mph N/A   Scattered Clouds
10:56 AM 57.9 °F 32.0 °F 37% 30.34 in 10.0 mi NE 21.9 mph - N/A   Partly Cloudy
11:56 AM 60.1 °F 30.0 °F 32% 30.34 in 10.0 mi NE 21.9 mph 27.6 mph N/A   Partly Cloudy
12:56 PM 63.0 °F 25.0 °F 24% 30.32 in 10.0 mi ENE 17.3 mph 24.2 mph N/A   Partly Cloudy
1:56 PM 63.0 °F 21.9 °F 21% 30.29 in 10.0 mi ENE 18.4 mph 24.2 mph N/A   Partly Cloudy
2:56 PM 63.0 °F 23.0 °F 22% 30.28 in 10.0 mi NE 13.8 mph 21.9 mph N/A   Partly Cloudy
3:56 PM 63.0 °F 25.0 °F 24% 30.26 in 10.0 mi East 12.7 mph - N/A   Scattered Clouds
4:56 PM 63.0 °F 25.0 °F 24% 30.24 in 10.0 mi East 11.5 mph - N/A   Scattered Clouds
5:56 PM 62.1 °F 27.0 °F 26% 30.23 in 10.0 mi East 15.0 mph - N/A   Scattered Clouds
6:56 PM 60.1 °F 27.0 °F 28% 30.24 in 10.0 mi East 12.7 mph - N/A   Scattered Clouds
7:56 PM 57.9 °F 28.0 °F 32% 30.26 in 10.0 mi ESE 10.4 mph - N/A   Scattered Clouds
8:56 PM 57.0 °F 28.9 °F 34% 30.28 in 10.0 mi ESE 9.2 mph - N/A   Mostly Cloudy
9:56 PM 57.0 °F 30.0 °F 36% 30.31 in 10.0 mi ESE 9.2 mph - N/A   Mostly Cloudy
10:56 PM 55.9 °F 32.0 °F 40% 30.34 in 10.0 mi East 5.8 mph - N/A   Mostly Cloudy
11:56 PM 59.0 °F 28.9 °F 32% 30.34 in 10.0 mi ENE 11.5 mph - N/A   Mostly Cloudy